Wind_Speed
55 57 59 61 63 65 67 70 72 73 72 72 75 77 80 83 87 91 95 100 105 109 111 111 109 103 97 90 85 84 84 86 89 92 96 101 106 112
57 60 62 63 65 68 70 71 72 74 74 74 78 81 85 90 96 101 106 110 111 109 104 95 85 74 66 61 59 59 61 63 66 69 72 77 82 88
60 62 63 65 68 70 71 72 73 75 76 76 81 86 92 98 104 108 109 106 98 88 78 68 60 54 51 49 48 49 51 52 54 56 58 61 65 69
61 63 66 68 69 71 72 73 75 77 80 82 86 93 99 105 107 105 96 85 74 64 58 54 50 46 45 45 46 47 47 48 50 51 53 54 55 58
63 65 67 69 70 72 73 76 78 82 86 90 94 100 104 105 99 87 74 62 56 52 49 47 44 43 44 45 45 45 45 46 47 48 50 50 51 51
65 67 68 70 72 74 76 79 84 88 94 99 103 104 101 92 80 65 53 49 48 46 45 44 42 41 43 44 44 45 46 46 45 46 47 48 48 47
66 68 69 71 74 77 81 85 90 96 101 105 104 98 86 71 58 49 44 42 41 42 41 40 40 41 42 43 44 45 46 45 44 43 42 44 45 45
67 69 71 73 77 81 86 91 97 102 104 101 93 80 65 53 45 42 40 38 36 39 39 38 40 40 42 42 42 42 41 40 38 37 35 36 37 39
68 70 73 77 82 86 91 96 100 101 96 87 74 60 50 44 41 38 37 35 35 38 37 35 37 39 40 40 39 38 36 34 32 31 29 29 29 31
70 73 77 82 87 92 96 98 96 89 79 68 58 49 43 41 40 38 37 35 34 37 38 36 36 37 38 37 35 32 30 28 27 26 25 25 25 26
73 78 83 87 92 96 97 94 84 71 60 53 47 43 42 42 40 39 39 38 35 34 36 36 35 33 34 34 31 29 27 27 26 26 25 26 26 26
77 83 88 92 95 96 91 80 65 55 48 45 44 43 42 41 41 42 41 40 37 33 32 32 32 30 26 29 28 27 26 26 26 26 26 26 27 27
82 87 91 94 93 86 74 61 51 45 42 41 41 41 40 41 41 41 41 40 37 34 31 29 28 27 24 21 25 26 26 25 26 27 28 28 29 29
86 91 93 90 81 68 57 47 42 40 39 39 39 39 39 39 38 38 38 37 37 34 30 28 26 24 22 20 20 22 25 27 28 28 29 30 30 31
90 91 86 76 63 52 44 39 37 37 37 37 36 36 36 35 35 34 33 33 34 33 30 27 25 23 22 19 19 21 23 25 28 29 30 29 29 29
88 81 70 58 48 40 36 36 35 36 35 34 33 33 33 33 33 32 30 29 29 30 30 28 24 22 20 19 19 21 24 26 26 27 27 27 28 29
79 66 53 43 37 34 34 34 34 34 34 33 33 33 33 33 33 31 29 28 27 25 25 26 25 21 18 16 17 21 24 25 26 25 25 25 28 30
63 49 40 34 31 30 30 31 32 32 33 33 34 33 33 32 31 30 28 27 25 23 22 21 20 19 17 16 18 20 23 23 23 23 24 25 27 29
46 36 30 27 26 27 28 30 31 32 33 33 33 32 32 30 29 28 26 25 23 21 20 18 16 14 13 15 19 21 20 20 20 20 22 24 27 28
33 26 23 23 24 26 28 29 30 32 33 33 33 31 30 28 27 25 24 22 20 19 18 15 12 9 9 11 13 16 17 17 17 18 20 23 26 28
23 19 19 21 23 25 27 29 30 31 32 32 31 30 28 27 25 23 22 20 18 17 14 11 8 7 7 10 12 14 15 16 16 18 19 21 24 26
15 15 17 20 22 25 26 28 30 31 32 32 31 29 28 26 24 22 19 17 16 14 11 8 5 5 7 9 12 14 15 15 16 17 19 20 22 25
11 13 16 19 21 24 26 29 30 31 32 31 30 28 27 25 22 20 17 15 14 11 8 5 4 4 7 10 12 13 14 15 16 17 18 20 21 23
Wind_Direction
295 296 297 298 298 298 298 298 299 299 299 300 299 299 299 299 299 298 298 297 296 295 293 292 290 288 286 283 280 277 274 272 269 267 265 263 261 259
297 298 299 299 299 299 300 301 301 301 301 302 302 302 302 302 301 301 300 300 298 297 295 294 293 291 289 287 284 281 278 276 273 271 269 266 264 261
299 299 300 300 301 302 303 303 303 303 303 303 303 304 303 303 302 302 302 300 298 297 296 296 295 294 293 291 288 286 283 281 278 276 274 271 268 264
300 301 301 302 303 304 304 304 304 304 305 305 305 305 304 304 304 303 302 299 298 297 297 297 297 296 294 292 291 289 287 285 283 280 277 274 271 268
301 302 304 304 305 305 305 305 306 306 306 305 306 305 305 305 304 303 300 298 297 298 297 298 298 297 296 295 295 293 291 288 285 281 278 275 272 270
303 305 306 306 306 306 306 306 306 306 306 306 307 307 307 306 304 301 298 297 298 298 297 298 299 300 300 300 301 300 297 294 288 283 278 274 271 269
305 306 306 307 307 308 308 307 307 307 308 308 309 309 307 305 302 300 298 298 299 298 298 300 301 302 302 304 304 303 302 298 294 287 281 275 270 267
306 307 307 308 308 308 308 308 309 309 309 310 309 309 307 304 302 300 300 299 298 297 298 301 301 303 304 306 307 307 305 302 298 293 286 280 273 268
307 308 309 309 309 309 309 310 310 311 310 310 309 308 306 303 302 301 301 302 302 299 299 301 301 303 305 308 310 311 310 309 307 303 297 289 281 276
309 309 310 310 310 310 311 311 312 311 310 308 308 307 305 303 303 302 302 303 304 302 302 303 303 306 308 312 315 316 316 314 312 308 303 297 290 284
310 310 310 311 311 311 312 313 313 311 309 308 308 307 305 305 303 303 304 304 304 302 301 303 304 307 310 314 317 318 318 318 315 311 306 300 293 288
310 311 312 312 313 313 314 314 313 311 309 308 308 308 307 306 305 305 304 304 303 302 300 301 302 305 307 311 316 319 319 318 316 314 310 304 298 292
312 313 313 314 314 315 315 314 313 311 310 309 308 308 307 305 305 305 305 304 304 304 302 300 300 302 306 305 309 315 319 319 318 316 313 308 302 297
314 314 314 315 315 315 315 314 314 314 313 312 311 309 308 306 306 306 306 306 305 305 304 302 301 300 302 305 305 310 315 317 318 317 315 310 306 301
315 315 315 315 315 315 315 316 316 317 317 316 315 314 312 310 309 307 307 306 306 305 307 307 306 304 304 305 307 311 315 317 319 320 320 317 313 308
316 316 315 315 315 316 316 317 318 319 319 319 319 318 317 316 314 311 309 307 306 306 308 310 310 308 305 305 312 317 322 325 326 326 326 325 322 318
317 316 315 315 316 318 319 321 322 323 323 322 321 320 320 319 317 315 314 311 308 305 305 307 309 309 306 307 316 325 331 332 332 333 335 335 333 331
317 316 316 317 319 321 323 325 327 327 326 324 322 320 320 320 319 318 317 315 311 308 307 306 306 309 312 320 330 336 337 337 338 341 345 346 346 345
317 316 318 321 324 327 329 329 330 330 329 327 325 323 322 322 322 321 320 318 315 314 313 312 308 307 312 322 330 338 342 345 349 354 356 358 0 3
317 318 322 326 329 331 332 333 333 333 332 332 331 329 328 326 325 324 323 322 319 318 318 318 315 313 319 333 339 346 353 359 4 9 11 12 14 17
318 323 328 331 333 335 336 337 338 338 337 337 336 335 334 332 330 328 328 327 325 324 323 323 323 327 339 351 360 6 11 15 19 21 23 22 24 28
321 329 335 338 340 342 343 344 344 343 342 341 340 339 338 337 335 333 332 332 332 333 334 334 338 350 2 11 19 24 29 32 32 32 33 34 38 41
330 338 343 346 347 349 349 349 349 348 346 345 344 343 343 343 342 341 339 338 340 344 348 354 9 25 27 31 36 39 42 43 45 46 45 44 45 45
Height
5656 5650 5645 5638 5632 5625 5618 5611 5604 5598 5593 5582 5571 5561 5550 5541 5531 5520 5511 5501 5489 5475 5463 5451 5439 5428 5418 5409 5401 5395 5390 5387 5384 5383 5384 5385 5388 5391
5643 5637 5630 5623 5616 5609 5602 5593 5584 5577 5571 5563 5551 5539 5527 5516 5503 5490 5478 5465 5451 5436 5423 5411 5402 5394 5387 5380 5374 5368 5363 5359 5356 5354 5352 5351 5352 5353
5630 5623 5616 5608 5600 5592 5584 5575 5566 5557 5550 5545 5531 5519 5505 5491 5477 5461 5445 5430 5416 5404 5394 5385 5379 5373 5367 5361 5355 5350 5345 5341 5336 5333 5329 5327 5325 5325
5616 5609 5601 5593 5584 5575 5566 5556 5547 5537 5528 5522 5512 5497 5481 5463 5448 5432 5415 5400 5390 5382 5375 5369 5363 5357 5351 5346 5340 5335 5330 5325 5320 5315 5311 5308 5304 5301
5602 5594 5585 5576 5567 5558 5548 5538 5528 5518 5506 5496 5488 5473 5456 5436 5420 5406 5392 5381 5372 5367 5361 5355 5350 5344 5338 5332 5326 5321 5315 5310 5304 5298 5293 5289 5286 5283
5587 5578 5569 5560 5550 5540 5530 5519 5508 5496 5483 5470 5458 5444 5427 5409 5394 5384 5377 5367 5360 5354 5348 5343 5338 5331 5325 5318 5312 5306 5300 5293 5287 5282 5276 5272 5269 5266
5572 5562 5553 5543 5533 5522 5511 5499 5486 5472 5457 5442 5428 5413 5399 5386 5376 5368 5362 5356 5349 5342 5337 5332 5326 5320 5313 5307 5300 5292 5284 5277 5270 5265 5260 5256 5254 5252
5556 5547 5537 5527 5517 5505 5492 5478 5462 5445 5429 5414 5400 5387 5377 5368 5362 5355 5350 5345 5340 5333 5326 5322 5315 5309 5302 5296 5288 5280 5271 5263 5256 5250 5246 5242 5240 5239
5541 5532 5522 5511 5499 5487 5473 5457 5439 5419 5402 5388 5378 5368 5361 5355 5350 5345 5339 5334 5328 5321 5315 5312 5305 5298 5291 5284 5277 5269 5260 5253 5246 5241 5236 5233 5230 5228
5526 5516 5505 5493 5479 5465 5452 5436 5417 5399 5383 5371 5362 5356 5349 5343 5338 5333 5328 5324 5319 5310 5304 5300 5294 5288 5280 5273 5267 5259 5252 5246 5240 5234 5230 5226 5223 5221
5512 5500 5487 5474 5459 5444 5429 5414 5397 5380 5367 5357 5351 5345 5339 5332 5326 5321 5317 5312 5308 5302 5294 5289 5284 5278 5271 5264 5258 5252 5246 5240 5235 5229 5224 5220 5216 5213
5497 5482 5468 5453 5436 5419 5404 5390 5378 5367 5357 5348 5341 5335 5329 5322 5316 5310 5305 5300 5296 5293 5287 5281 5275 5269 5265 5257 5251 5246 5240 5235 5229 5224 5219 5214 5209 5206
5477 5463 5447 5431 5415 5398 5384 5374 5364 5356 5348 5340 5333 5326 5319 5313 5307 5301 5295 5289 5284 5281 5276 5272 5267 5261 5256 5253 5246 5240 5234 5229 5224 5218 5213 5207 5202 5197
5457 5442 5426 5410 5395 5382 5371 5362 5354 5347 5339 5332 5324 5317 5311 5304 5298 5292 5286 5280 5274 5270 5267 5262 5258 5253 5249 5245 5241 5236 5230 5223 5218 5212 5206 5199 5193 5188
5438 5421 5405 5391 5380 5370 5361 5354 5346 5339 5332 5324 5317 5309 5302 5296 5290 5285 5279 5273 5267 5261 5257 5253 5249 5246 5242 5238 5235 5231 5226 5220 5212 5205 5198 5191 5184 5178
5420 5404 5389 5378 5369 5362 5354 5347 5340 5332 5325 5317 5310 5303 5296 5289 5282 5277 5272 5267 5262 5256 5250 5245 5242 5239 5235 5232 5229 5224 5219 5213 5206 5199 5191 5184 5176 5169
5402 5389 5378 5369 5361 5354 5347 5340 5333 5326 5318 5311 5304 5297 5289 5282 5275 5269 5264 5259 5255 5251 5246 5241 5236 5233 5230 5228 5225 5220 5213 5207 5200 5193 5186 5179 5170 5161
5386 5376 5368 5361 5355 5348 5341 5334 5327 5320 5312 5305 5298 5290 5283 5277 5270 5264 5258 5253 5248 5244 5241 5237 5233 5230 5227 5223 5220 5216 5210 5204 5197 5190 5182 5174 5166 5155
5375 5367 5361 5355 5349 5343 5337 5330 5322 5315 5307 5300 5292 5285 5278 5271 5265 5259 5253 5248 5243 5239 5236 5232 5229 5227 5224 5221 5218 5213 5208 5201 5195 5188 5181 5173 5164 5153
5366 5361 5356 5351 5345 5339 5333 5326 5318 5311 5303 5295 5287 5279 5272 5266 5260 5254 5249 5244 5239 5235 5232 5229 5227 5224 5222 5220 5217 5213 5207 5200 5194 5188 5182 5175 5166 5156
5360 5356 5352 5347 5341 5335 5329 5322 5315 5307 5299 5290 5282 5275 5268 5262 5256 5250 5245 5240 5236 5233 5230 5227 5225 5223 5221 5219 5216 5212 5207 5201 5195 5190 5184 5178 5171 5163
5356 5353 5349 5344 5338 5332 5325 5318 5311 5303 5295 5287 5279 5272 5265 5258 5252 5247 5242 5238 5234 5231 5228 5226 5224 5223 5222 5220 5216 5213 5208 5204 5199 5193 5188 5183 5177 5170
5353 5350 5346 5341 5336 5330 5323 5316 5308 5300 5292 5284 5276 5269 5262 5256 5250 5245 5240 5236 5233 5230 5228 5226 5225 5224 5223 5221 5218 5215 5211 5207 5203 5198 5194 5188 5183 5177